OPS 4682 DEB, 38406

Orbit data source: Space-Track

OPS 4682 DEB, 38406 is space debris in LEO originally from a launch on Sat, 03 Apr 1965 UTC launched from the Air Force Western Test Range (AFWTR). Debris objects in space refer to the collection of defunct objects orbiting the Earth. Examples of debris include non-operational satellites, rocket bodies, and fragments generated from explosions, collisions, or faulty payload assembly.

Loading next visibility...
Identifier
38406, 1965-027DK
Orbit
LEO
Country
Flag of USUS
Related business
Manufacturer
Unknown
Mission
Spacecraft
Bus & Motor
Unknown
Mass
Unknown
Launch date (UTC)
1965-04-03 (61 years ago)
Launch vehicle
Unknown
Launch site
Air Force Western Test Range (AFWTR)
Object type
Payload
Rocket body
Debris
Shape & HBR
Unknown shape, 0.1 m
Radar Cross Section
Small (<0.1 m²)

Expand to show TLE details & history
Last TLE update: 6 hours ago

TLE from 6 hours ago
0 OPS 4682 DEB
1 38406U 65027DK  26119.44854622  .00000983  00000-0  32235-2 0  9992
2 38406  90.2452  10.0773 0026966  21.2106 339.0127 13.00292380548936
Epoch: 2026-04-29T10:45Z
TLE epoch observation values (Epoch: 2026-04-29T10:45:54.393Z)
Latitude
-0.00011°
Longitude
-8.80869°
Altitude
1,244.596 km
Speed
7.242 km/s
True Right ascension
00h 40m 18s
True Declination
0° 00' 00"
Sunlit
Object was in daylight at epoch
Visualization orbit readout
Latitude
Unknown
Longitude
Unknown
Altitude
Unknown
Speed
Unknown
Apparent Right ascension
Unknown
Apparent Declination
Unknown
Sunlit
N/A
Visualization observer readout
Local Sidereal Time
00:33:19
Azimuth
Unknown
Elevation
Unknown
Doppler factor
Unknown
Orbital elements
Apogee altitude
1,278.66 km
Perigee altitude
1,237.476 km
Semi-major axis
7,636.205 km
Eccentricity
0.0027
Inclination
90.2452°
RAAN
10.0773°
Arg. of periapsis
21.2106°
True anomaly
338.90168°
Mean anomaly
339.0127°
Eccentric anomaly
338.95722°
Mean motion
3.25257 °/min
Orbital period
110.68 mins
BSTAR
0.0032235
Loading maneuver chart data...
Computing Atmospheric mass density...
Loading historical data...
Loading historical data...
Loading historical data...
Loading historical data...
Loading historical data...
Loading historical data...
Loading historical data...

Documentation

Showing up to 5 results
|